THY3LG LTFM-LSZH

Flight info

Callsign THY3LG
Flight time 2h 27m
Altitude 34000
Route VADEN1D/35L VADEN DCT BAKLO DCT XANEX DCT BESLI DCT UTEKA DCT BEDOX DCT ERKIR DCT KPT L856 NEGRA NEGR2A LSZH/14
Aircraft A20N/M-SDE2E3FGHIRWXY/LB1

Departure

Time 2026-05-04 13:04
Airport İstanbul Airport (LTFM)

Arrival

Time 2026-05-04 15:32
Airport Zürich Airport (LSZH)
Time Latitude Longitude Altitude Speed Heading
2026-05-04 12:40 41.26555 28.73507 329 ft 0 kts 71°
2026-05-04 12:51 41.26552 28.73497 329 ft 4 kts 70°
2026-05-04 12:52 41.26542 28.73464 330 ft 4 kts 66°
2026-05-04 12:52 41.26530 28.73432 331 ft 4 kts 58°
2026-05-04 12:52 41.26514 28.73404 331 ft 4 kts 28°
2026-05-04 12:52 41.26498 28.73399 333 ft 1 kts 341°
2026-05-04 12:53 41.26495 28.73401 330 ft 0 kts 341°
2026-05-04 12:56 41.26496 28.73400 334 ft 1 kts 341°
2026-05-04 12:56 41.26507 28.73395 333 ft 3 kts 341°
2026-05-04 12:57 41.26531 28.73384 331 ft 5 kts 341°
2026-05-04 12:57 41.26574 28.73361 331 ft 8 kts 330°
2026-05-04 12:57 41.26601 28.73295 330 ft 9 kts 274°
2026-05-04 12:57 41.26599 28.73205 332 ft 10 kts 270°
2026-05-04 12:58 41.26599 28.73195 331 ft 0 kts 268°
2026-05-04 12:58 41.26596 28.73194 330 ft 1 kts 240°
2026-05-04 12:58 41.26591 28.73195 331 ft 1 kts 183°
2026-05-04 12:58 41.26574 28.73208 332 ft 6 kts 154°
2026-05-04 12:59 41.26570 28.73211 330 ft 2 kts 152°
2026-05-04 12:59 41.26569 28.73218 334 ft 1 kts 108°
2026-05-04 12:59 41.26574 28.73224 332 ft 2 kts 47°
2026-05-04 12:59 41.26592 28.73208 331 ft 5 kts 301°
2026-05-04 13:00 41.26599 28.73140 330 ft 10 kts 271°
2026-05-04 13:00 41.26597 28.73057 332 ft 8 kts 268°
2026-05-04 13:00 41.26596 28.72976 331 ft 8 kts 269°
2026-05-04 13:00 41.26596 28.72932 334 ft 1 kts 268°
2026-05-04 13:01 41.26595 28.72917 334 ft 0 kts 268°
2026-05-04 13:01 41.26595 28.72899 330 ft 3 kts 268°
2026-05-04 13:01 41.26595 28.72877 331 ft 1 kts 268°
2026-05-04 13:01 41.26594 28.72850 332 ft 6 kts 269°
2026-05-04 13:02 41.26594 28.72755 332 ft 13 kts 270°
2026-05-04 13:02 41.26592 28.72637 334 ft 9 kts 268°
2026-05-04 13:02 41.26589 28.72563 334 ft 9 kts 266°
2026-05-04 13:02 41.26621 28.72516 332 ft 7 kts 349°
2026-05-04 13:03 41.26667 28.72515 332 ft 4 kts 358°
2026-05-04 13:03 41.26702 28.72514 329 ft 5 kts 359°
2026-05-04 13:03 41.26824 28.72512 332 ft 46 kts 358°
2026-05-04 13:03 41.27362 28.72501 329 ft 105 kts 359°
2026-05-04 13:04 41.28249 28.72492 373 ft 145 kts 359°
2026-05-04 13:04 41.29248 28.72503 907 ft 146 kts 359°
2026-05-04 13:04 41.30297 28.72518 1485 ft 155 kts
2026-05-04 13:04 41.31402 28.72500 2037 ft 164 kts 359°
2026-05-04 13:05 41.32582 28.72452 2539 ft 177 kts
2026-05-04 13:05 41.33845 28.72464 3092 ft 183 kts
2026-05-04 13:05 41.35117 28.72495 3678 ft 183 kts
2026-05-04 13:05 41.36405 28.72518 4188 ft 187 kts
2026-05-04 13:06 41.37707 28.72330 4639 ft 193 kts 341°
2026-05-04 13:06 41.38829 28.71282 5037 ft 208 kts 312°
2026-05-04 13:06 41.39614 28.69580 5419 ft 222 kts 305°
2026-05-04 13:06 41.40402 28.67770 5862 ft 228 kts 305°
2026-05-04 13:07 41.41218 28.65925 6359 ft 233 kts 305°
2026-05-04 13:07 41.42058 28.64051 6810 ft 238 kts 306°
2026-05-04 13:07 41.42915 28.62153 7257 ft 241 kts 306°
2026-05-04 13:07 41.43795 28.60242 7734 ft 244 kts 307°
2026-05-04 13:08 41.44698 28.58299 8267 ft 248 kts 307°
2026-05-04 13:08 41.45611 28.56333 8784 ft 251 kts 307°
2026-05-04 13:08 41.46524 28.54360 9321 ft 249 kts 308°
2026-05-04 13:08 41.47433 28.52393 9836 ft 251 kts 308°
2026-05-04 13:09 41.48355 28.50405 10282 ft 258 kts 308°
2026-05-04 13:09 41.49322 28.48323 10683 ft 271 kts 308°
2026-05-04 13:09 41.50343 28.46123 11133 ft 285 kts 308°
2026-05-04 13:09 41.51412 28.43810 11644 ft 300 kts 308°
2026-05-04 13:10 41.52529 28.41385 12172 ft 314 kts 308°
2026-05-04 13:10 41.53699 28.38841 12691 ft 328 kts 308°
2026-05-04 13:10 41.54918 28.36186 13235 ft 341 kts 308°
2026-05-04 13:10 41.56180 28.33434 13801 ft 354 kts 308°
2026-05-04 13:11 41.57461 28.30628 14316 ft 352 kts 308°
2026-05-04 13:11 41.58734 28.27835 14890 ft 353 kts 308°
2026-05-04 13:11 41.60026 28.25010 15473 ft 357 kts 308°
2026-05-04 13:11 41.61330 28.22162 16071 ft 362 kts 308°
2026-05-04 13:12 41.62633 28.19316 16679 ft 366 kts 307°
2026-05-04 13:12 41.63972 28.16388 17302 ft 371 kts 307°
2026-05-04 13:12 41.65325 28.13428 17942 ft 375 kts 307°
2026-05-04 13:12 41.66690 28.10436 18555 ft 379 kts 307°
2026-05-04 13:13 41.68069 28.07411 19112 ft 383 kts 307°
2026-05-04 13:13 41.69465 28.04342 19687 ft 387 kts 307°
2026-05-04 13:13 41.70864 28.01263 20273 ft 390 kts 307°
2026-05-04 13:13 41.72282 27.98139 20837 ft 394 kts 307°
2026-05-04 13:14 41.73715 27.94982 21308 ft 400 kts 307°
2026-05-04 13:14 41.75164 27.91782 21847 ft 404 kts 307°
2026-05-04 13:14 41.76627 27.88547 22379 ft 408 kts 307°
2026-05-04 13:14 41.78105 27.85277 22919 ft 412 kts 307°
2026-05-04 13:15 41.79597 27.81972 23438 ft 416 kts 307°
2026-05-04 13:15 41.81100 27.78639 23906 ft 420 kts 307°
2026-05-04 13:15 41.82614 27.75281 24384 ft 423 kts 306°
2026-05-04 13:15 41.84140 27.71891 24816 ft 426 kts 306°
2026-05-04 13:16 41.85678 27.68472 25283 ft 428 kts 306°
2026-05-04 13:16 41.87224 27.65030 25701 ft 432 kts 306°
2026-05-04 13:16 41.88779 27.61564 26136 ft 434 kts 306°
2026-05-04 13:16 41.90321 27.58124 26548 ft 437 kts 306°
2026-05-04 13:17 41.91910 27.54571 26957 ft 440 kts 306°
2026-05-04 13:17 41.93472 27.51076 27333 ft 443 kts 306°
2026-05-04 13:17 41.95059 27.47520 27737 ft 445 kts 306°
2026-05-04 13:17 41.96658 27.43937 28105 ft 448 kts 305°
2026-05-04 13:18 41.98263 27.40332 28464 ft 451 kts 305°
2026-05-04 13:18 41.99880 27.36697 28806 ft 454 kts 305°
2026-05-04 13:18 42.01502 27.33046 29136 ft 457 kts 305°
2026-05-04 13:18 42.03133 27.29372 29454 ft 459 kts 305°
2026-05-04 13:19 42.04775 27.25666 29774 ft 462 kts 305°
2026-05-04 13:19 42.05878 27.23219 29974 ft 462 kts 307°
2026-05-04 13:19 42.08515 27.18665 30354 ft 460 kts 316°
2026-05-04 13:19 42.10678 27.15456 30635 ft 463 kts 316°
2026-05-04 13:20 42.12837 27.12223 30915 ft 465 kts 316°
2026-05-04 13:20 42.14999 27.08970 31215 ft 467 kts 316°
2026-05-04 13:20 42.17169 27.05699 31585 ft 467 kts 315°
2026-05-04 13:20 42.19329 27.02439 31970 ft 466 kts 315°
2026-05-04 13:21 42.21492 26.99173 32348 ft 466 kts 315°
2026-05-04 13:21 42.23650 26.95912 32712 ft 465 kts 315°
2026-05-04 13:21 42.25802 26.92657 33064 ft 465 kts 315°
2026-05-04 13:21 42.27960 26.89390 33410 ft 465 kts 315°
2026-05-04 13:22 42.30082 26.86174 33741 ft 465 kts 315°
2026-05-04 13:22 42.32229 26.82916 33986 ft 465 kts 315°
2026-05-04 13:22 42.34374 26.79658 34034 ft 464 kts 315°
2026-05-04 13:23 42.38658 26.73139 34036 ft 463 kts 315°
2026-05-04 13:23 42.42246 26.67669 34041 ft 464 kts 314°
2026-05-04 13:24 42.46496 26.61176 34036 ft 464 kts 314°
2026-05-04 13:24 42.50807 26.54575 34041 ft 464 kts 314°
2026-05-04 13:25 42.56400 26.43896 34042 ft 469 kts 300°
2026-05-04 13:25 42.59477 26.36079 34042 ft 470 kts 300°
2026-05-04 13:26 42.62575 26.28262 34045 ft 470 kts 300°
2026-05-04 13:26 42.65660 26.20432 34054 ft 471 kts 300°
2026-05-04 13:27 42.68744 26.12574 34057 ft 471 kts 300°
2026-05-04 13:27 42.71815 26.04726 34049 ft 471 kts 299°
2026-05-04 13:28 42.74887 25.96853 34047 ft 471 kts 299°
2026-05-04 13:28 42.77951 25.88978 34049 ft 471 kts 299°
2026-05-04 13:29 42.81012 25.81090 34052 ft 471 kts 299°
2026-05-04 13:29 42.84068 25.73195 34062 ft 471 kts 299°
2026-05-04 13:30 42.87115 25.65299 34068 ft 470 kts 298°
2026-05-04 13:30 42.90135 25.57453 34069 ft 470 kts 298°
2026-05-04 13:31 42.93162 25.49565 34075 ft 469 kts 298°
2026-05-04 13:31 42.96181 25.41677 34083 ft 468 kts 298°
2026-05-04 13:32 42.99185 25.33806 34068 ft 465 kts 298°
2026-05-04 13:32 43.02167 25.25972 34072 ft 464 kts 297°
2026-05-04 13:33 43.05141 25.18136 34072 ft 464 kts 297°
2026-05-04 13:33 43.08106 25.10304 34071 ft 462 kts 297°
2026-05-04 13:34 43.11044 25.02521 34081 ft 463 kts 297°
2026-05-04 13:34 43.13764 24.94531 34093 ft 463 kts 291°
2026-05-04 13:35 43.17372 24.82287 34081 ft 460 kts 291°
2026-05-04 13:36 43.19762 24.74180 34086 ft 459 kts 291°
2026-05-04 13:36 43.22142 24.66057 34084 ft 458 kts 291°
2026-05-04 13:37 43.24509 24.57949 34086 ft 457 kts 291°
2026-05-04 13:37 43.26862 24.49861 34088 ft 456 kts 291°
2026-05-04 13:38 43.29202 24.41796 34086 ft 455 kts 291°
2026-05-04 13:38 43.31531 24.33741 34088 ft 454 kts 290°
2026-05-04 13:39 43.33850 24.25694 34082 ft 453 kts 290°
2026-05-04 13:39 43.36146 24.17697 34080 ft 452 kts 290°
2026-05-04 13:40 43.38452 24.09643 34078 ft 452 kts 290°
2026-05-04 13:40 43.40757 24.01598 34074 ft 452 kts 291°
2026-05-04 13:41 43.43287 23.93668 34070 ft 452 kts 293°
2026-05-04 13:41 43.45853 23.85776 34071 ft 452 kts 293°
2026-05-04 13:42 43.49642 23.73885 34065 ft 452 kts 293°
2026-05-04 13:42 43.52141 23.65985 34070 ft 453 kts 293°
2026-05-04 13:43 43.54651 23.58023 34069 ft 453 kts 293°
2026-05-04 13:43 43.57162 23.50036 34079 ft 454 kts 293°
2026-05-04 13:44 43.59670 23.42030 34080 ft 454 kts 293°
2026-05-04 13:44 43.62171 23.34025 34079 ft 455 kts 294°
2026-05-04 13:45 43.64673 23.25993 34079 ft 455 kts 294°
2026-05-04 13:45 43.67153 23.18004 34086 ft 455 kts 294°
2026-05-04 13:46 43.69640 23.09969 34086 ft 455 kts 294°
2026-05-04 13:46 43.72124 23.01927 34097 ft 455 kts 294°
2026-05-04 13:47 43.74600 22.93880 34081 ft 455 kts 294°
2026-05-04 13:47 43.77073 22.85817 34092 ft 454 kts 294°
2026-05-04 13:48 43.79538 22.77758 34089 ft 454 kts 295°
2026-05-04 13:48 43.81994 22.69707 34085 ft 453 kts 295°
2026-05-04 13:49 43.84433 22.61681 34091 ft 452 kts 295°
2026-05-04 13:49 43.86848 22.53709 34095 ft 450 kts 295°
2026-05-04 13:50 43.89267 22.45700 34088 ft 449 kts 295°
2026-05-04 13:50 43.91775 22.37784 34090 ft 446 kts 301°
2026-05-04 13:51 43.94793 22.30291 34085 ft 444 kts 302°
2026-05-04 13:51 43.97792 22.22819 34083 ft 443 kts 302°
2026-05-04 13:52 44.02275 22.11626 34077 ft 441 kts 302°
2026-05-04 13:53 44.05254 22.04169 34088 ft 440 kts 302°
2026-05-04 13:53 44.08217 21.96721 34077 ft 439 kts 302°
2026-05-04 13:54 44.12624 21.85599 34095 ft 439 kts 302°
2026-05-04 13:55 44.17034 21.74423 34100 ft 439 kts 302°
2026-05-04 13:55 44.21437 21.63225 34113 ft 439 kts 302°
2026-05-04 13:56 44.24363 21.55758 34117 ft 439 kts 302°
2026-05-04 13:57 44.28742 21.44548 34125 ft 438 kts 302°
2026-05-04 13:58 44.34539 21.29634 34114 ft 433 kts 302°
2026-05-04 13:58 44.38837 21.18525 34110 ft 432 kts 302°
2026-05-04 13:59 44.41689 21.11130 34107 ft 432 kts 302°
2026-05-04 14:00 44.45935 21.00082 34110 ft 431 kts 302°
2026-05-04 14:00 44.50177 20.89001 34107 ft 430 kts 302°
2026-05-04 14:01 44.52995 20.81613 34100 ft 429 kts 302°
2026-05-04 14:02 44.57207 20.70539 34090 ft 429 kts 302°
2026-05-04 14:02 44.60013 20.63134 34087 ft 430 kts 302°
2026-05-04 14:03 44.62815 20.55718 34091 ft 430 kts 302°
2026-05-04 14:03 44.65601 20.48331 34092 ft 431 kts 301°
2026-05-04 14:04 44.69804 20.37145 34099 ft 432 kts 301°
2026-05-04 14:04 44.72603 20.29670 34096 ft 432 kts 301°
2026-05-04 14:05 44.76801 20.18418 34106 ft 433 kts 301°
2026-05-04 14:06 44.79594 20.10907 34105 ft 433 kts 301°
2026-05-04 14:06 44.82382 20.03391 34111 ft 434 kts 301°
2026-05-04 14:07 44.85177 19.95834 34122 ft 433 kts 301°
2026-05-04 14:07 44.87488 19.89569 34121 ft 433 kts 301°
2026-05-04 14:08 44.90267 19.82017 34113 ft 433 kts 300°
2026-05-04 14:08 44.93034 19.74477 34105 ft 433 kts 300°
2026-05-04 14:09 44.97173 19.63158 34104 ft 432 kts 300°
2026-05-04 14:10 45.01292 19.51848 34096 ft 431 kts 300°
2026-05-04 14:10 45.04025 19.44318 34078 ft 430 kts 300°
2026-05-04 14:11 45.06751 19.36785 34088 ft 430 kts 300°
2026-05-04 14:11 45.10830 19.25476 34070 ft 430 kts 300°
2026-05-04 14:12 45.13521 19.17989 34068 ft 430 kts 300°
2026-05-04 14:13 45.17581 19.06653 34065 ft 430 kts 300°
2026-05-04 14:13 45.20285 18.99079 34064 ft 430 kts 299°
2026-05-04 14:14 45.22983 18.91498 34066 ft 431 kts 299°
2026-05-04 14:14 45.27037 18.80068 34070 ft 432 kts 299°
2026-05-04 14:15 45.32440 18.64758 34074 ft 434 kts 299°
2026-05-04 14:16 45.36490 18.53226 34080 ft 435 kts 298°
2026-05-04 14:17 45.40520 18.41699 34082 ft 436 kts 298°
2026-05-04 14:18 45.44561 18.30093 34081 ft 436 kts 298°
2026-05-04 14:19 45.49927 18.14602 34074 ft 436 kts 298°
2026-05-04 14:19 45.52600 18.06848 34076 ft 435 kts 298°
2026-05-04 14:20 45.55264 17.99099 34066 ft 435 kts 298°
2026-05-04 14:20 45.57924 17.91342 34065 ft 434 kts 297°
2026-05-04 14:21 45.61893 17.79723 34063 ft 434 kts 297°
2026-05-04 14:21 45.64513 17.72029 34060 ft 433 kts 297°
2026-05-04 14:22 45.67140 17.64287 34054 ft 433 kts 297°
2026-05-04 14:22 45.69762 17.56540 34055 ft 433 kts 297°
2026-05-04 14:23 45.73686 17.44897 34047 ft 432 kts 297°
2026-05-04 14:24 45.76293 17.37138 34050 ft 432 kts 297°
2026-05-04 14:24 45.78893 17.29377 34049 ft 432 kts 297°
2026-05-04 14:25 45.81484 17.21619 34050 ft 432 kts 297°
2026-05-04 14:25 45.85363 17.09959 34046 ft 431 kts 297°
2026-05-04 14:26 45.87927 17.02224 34048 ft 432 kts 296°
2026-05-04 14:26 45.90505 16.94427 34047 ft 431 kts 296°
2026-05-04 14:27 45.93073 16.86635 34044 ft 431 kts 296°
2026-05-04 14:27 45.95618 16.78882 34051 ft 431 kts 296°
2026-05-04 14:28 45.98173 16.71081 34047 ft 431 kts 296°
2026-05-04 14:28 46.00723 16.63272 34040 ft 431 kts 296°
2026-05-04 14:29 46.05806 16.47636 34036 ft 430 kts 296°
2026-05-04 14:30 46.08338 16.39813 34035 ft 430 kts 295°
2026-05-04 14:31 46.12118 16.28086 34025 ft 430 kts 295°
2026-05-04 14:32 46.17124 16.12477 34018 ft 430 kts 295°
2026-05-04 14:32 46.19628 16.04648 34019 ft 430 kts 295°
2026-05-04 14:33 46.22128 15.96810 34010 ft 430 kts 295°
2026-05-04 14:33 46.24624 15.88964 34004 ft 430 kts 295°
2026-05-04 14:34 46.27120 15.81109 34002 ft 430 kts 295°
2026-05-04 14:34 46.29837 15.73407 34004 ft 430 kts 297°
2026-05-04 14:35 46.32591 15.65814 34002 ft 429 kts 297°
2026-05-04 14:35 46.35338 15.58134 34008 ft 429 kts 297°
2026-05-04 14:36 46.38068 15.50441 34005 ft 429 kts 297°
2026-05-04 14:36 46.40790 15.42735 34020 ft 428 kts 296°
2026-05-04 14:37 46.43499 15.35043 34008 ft 428 kts 296°
2026-05-04 14:37 46.46196 15.27361 34013 ft 427 kts 296°
2026-05-04 14:38 46.48870 15.19723 34011 ft 427 kts 296°
2026-05-04 14:38 46.51555 15.12034 34005 ft 427 kts 296°
2026-05-04 14:39 46.54236 15.04332 34010 ft 427 kts 296°
2026-05-04 14:39 46.56912 14.96626 34008 ft 427 kts 296°
2026-05-04 14:40 46.60920 14.85031 34016 ft 428 kts 296°
2026-05-04 14:40 46.63588 14.77287 34018 ft 428 kts 295°
2026-05-04 14:41 46.66239 14.69576 34018 ft 429 kts 295°
2026-05-04 14:42 46.71572 14.53984 34022 ft 430 kts 295°
2026-05-04 14:42 46.74236 14.46161 34027 ft 431 kts 295°
2026-05-04 14:43 46.76895 14.38329 34025 ft 431 kts 295°
2026-05-04 14:43 46.79549 14.30486 34020 ft 431 kts 295°
2026-05-04 14:44 46.82197 14.22639 34014 ft 431 kts 295°
2026-05-04 14:44 46.84845 14.14769 34013 ft 431 kts 295°
2026-05-04 14:45 46.87484 14.06905 34013 ft 431 kts 295°
2026-05-04 14:45 46.90103 13.99070 34013 ft 431 kts 294°
2026-05-04 14:46 46.92731 13.91189 34011 ft 431 kts 294°
2026-05-04 14:46 46.95358 13.83288 34006 ft 431 kts 294°
2026-05-04 14:47 46.97981 13.75373 34006 ft 431 kts 294°
2026-05-04 14:47 47.00597 13.67456 34004 ft 433 kts 294°
2026-05-04 14:48 47.03215 13.59504 34004 ft 434 kts 294°
2026-05-04 14:48 47.05833 13.51526 34009 ft 435 kts 294°
2026-05-04 14:49 47.08458 13.43505 34002 ft 436 kts 294°
2026-05-04 14:49 47.11085 13.35459 33998 ft 437 kts 294°
2026-05-04 14:50 47.13708 13.27393 33995 ft 438 kts 294°
2026-05-04 14:50 47.16312 13.19364 33997 ft 439 kts 294°
2026-05-04 14:51 47.18934 13.11253 33997 ft 440 kts 294°
2026-05-04 14:51 47.21554 13.03121 33994 ft 440 kts 293°
2026-05-04 14:52 47.24171 12.94971 33996 ft 440 kts 293°
2026-05-04 14:52 47.26340 12.88198 33994 ft 440 kts 293°
2026-05-04 14:53 47.28943 12.80046 33982 ft 440 kts 293°
2026-05-04 14:53 47.31542 12.71879 33978 ft 440 kts 293°
2026-05-04 14:54 47.34134 12.63710 33977 ft 439 kts 293°
2026-05-04 14:54 47.36716 12.55543 33960 ft 439 kts 293°
2026-05-04 14:55 47.39288 12.47385 33950 ft 438 kts 293°
2026-05-04 14:55 47.41839 12.39264 33939 ft 438 kts 292°
2026-05-04 14:56 47.44394 12.31108 33931 ft 438 kts 292°
2026-05-04 14:56 47.46948 12.22925 33928 ft 438 kts 292°
2026-05-04 14:57 47.49495 12.14744 33922 ft 438 kts 292°
2026-05-04 14:57 47.52043 12.06543 33906 ft 439 kts 292°
2026-05-04 14:58 47.54089 11.98067 33907 ft 437 kts 282°
2026-05-04 14:58 47.55297 11.89279 33931 ft 437 kts 279°
2026-05-04 14:59 47.56473 11.80441 33931 ft 438 kts 279°
2026-05-04 15:00 47.58217 11.67184 33919 ft 437 kts 278°
2026-05-04 15:00 47.59364 11.58333 33938 ft 437 kts 278°
2026-05-04 15:01 47.61063 11.45104 33933 ft 437 kts 278°
2026-05-04 15:01 47.62191 11.36252 33934 ft 437 kts 278°
2026-05-04 15:02 47.63306 11.27444 33942 ft 437 kts 278°
2026-05-04 15:02 47.64320 11.19394 33950 ft 437 kts 278°
2026-05-04 15:03 47.65377 11.10946 33951 ft 437 kts 278°
2026-05-04 15:03 47.66477 11.02095 33957 ft 436 kts 278°
2026-05-04 15:04 47.67571 10.93235 33964 ft 436 kts 278°
2026-05-04 15:04 47.68656 10.84383 33960 ft 436 kts 277°
2026-05-04 15:05 47.69735 10.75530 33948 ft 436 kts 277°
2026-05-04 15:05 47.70273 10.71085 33686 ft 438 kts 277°
2026-05-04 15:05 47.70811 10.66630 33161 ft 439 kts 277°
2026-05-04 15:06 47.71348 10.62171 32568 ft 438 kts 277°
2026-05-04 15:06 47.71883 10.57717 32001 ft 438 kts 277°
2026-05-04 15:06 47.72416 10.53253 31438 ft 439 kts 277°
2026-05-04 15:07 47.73448 10.44577 30382 ft 442 kts 277°
2026-05-04 15:07 47.73967 10.40194 29878 ft 439 kts 277°
2026-05-04 15:07 47.74392 10.35727 29297 ft 433 kts 272°
2026-05-04 15:07 47.74508 10.31301 28754 ft 427 kts 267°
2026-05-04 15:08 47.74397 10.26911 28208 ft 423 kts 265°
2026-05-04 15:08 47.74293 10.22568 27683 ft 420 kts 266°
2026-05-04 15:08 47.74198 10.18241 27154 ft 417 kts 266°
2026-05-04 15:08 47.74102 10.13952 26636 ft 414 kts 266°
2026-05-04 15:09 47.74005 10.09695 26146 ft 411 kts 265°
2026-05-04 15:09 47.73906 10.05464 25642 ft 408 kts 265°
2026-05-04 15:09 47.73805 10.01295 25160 ft 405 kts 265°
2026-05-04 15:10 47.73600 9.92988 24205 ft 399 kts 265°
2026-05-04 15:10 47.73497 9.88880 23737 ft 396 kts 265°
2026-05-04 15:10 47.73293 9.80847 22890 ft 381 kts 265°
2026-05-04 15:11 47.73191 9.76952 22459 ft 374 kts 265°
2026-05-04 15:11 47.73088 9.73099 22042 ft 373 kts 265°
2026-05-04 15:11 47.72982 9.69246 21623 ft 373 kts 265°
2026-05-04 15:11 47.72876 9.65403 21215 ft 371 kts 265°
2026-05-04 15:12 47.72771 9.61601 20805 ft 367 kts 265°
2026-05-04 15:12 47.72664 9.57826 20409 ft 365 kts 264°
2026-05-04 15:12 47.72557 9.54059 20013 ft 364 kts 264°
2026-05-04 15:12 47.72448 9.50321 19626 ft 362 kts 264°
2026-05-04 15:13 47.72315 9.46597 19242 ft 359 kts 261°
2026-05-04 15:13 47.71744 9.43036 18864 ft 354 kts 247°
2026-05-04 15:13 47.70612 9.39821 18507 ft 349 kts 233°
2026-05-04 15:13 47.69102 9.37025 18136 ft 347 kts 229°
2026-05-04 15:14 47.67569 9.34259 17738 ft 346 kts 230°
2026-05-04 15:14 47.66052 9.31500 17339 ft 345 kts 230°
2026-05-04 15:14 47.64536 9.28741 16948 ft 344 kts 230°
2026-05-04 15:14 47.63025 9.25991 16553 ft 343 kts 230°
2026-05-04 15:15 47.61791 9.23750 16253 ft 342 kts 230°
2026-05-04 15:15 47.60291 9.20816 15854 ft 342 kts 237°
2026-05-04 15:15 47.59249 9.17658 15491 ft 341 kts 249°
2026-05-04 15:16 47.58263 9.10859 14759 ft 333 kts 258°
2026-05-04 15:16 47.57860 9.07511 14407 ft 328 kts 259°
2026-05-04 15:16 47.58165 9.00933 13680 ft 316 kts 287°
2026-05-04 15:17 47.58978 8.97956 13295 ft 308 kts 291°
2026-05-04 15:17 47.60562 8.92200 12505 ft 295 kts 290°
2026-05-04 15:17 47.61319 8.89408 12119 ft 289 kts 290°
2026-05-04 15:18 47.62062 8.86670 11732 ft 283 kts 289°
2026-05-04 15:18 47.62791 8.83984 11347 ft 280 kts 289°
2026-05-04 15:18 47.63273 8.81218 10978 ft 276 kts 269°
2026-05-04 15:19 47.62235 8.75984 10252 ft 262 kts 244°
2026-05-04 15:19 47.61519 8.73488 9893 ft 262 kts 245°
2026-05-04 15:19 47.60100 8.68464 9126 ft 265 kts 245°
2026-05-04 15:20 47.59391 8.65949 8747 ft 265 kts 245°
2026-05-04 15:20 47.58711 8.63420 8394 ft 264 kts 253°
2026-05-04 15:20 47.58657 8.60736 8151 ft 261 kts 282°
2026-05-04 15:20 47.59454 8.58367 7996 ft 258 kts 310°
2026-05-04 15:21 47.60774 8.56538 7824 ft 263 kts 317°
2026-05-04 15:21 47.62114 8.54739 7630 ft 258 kts 316°
2026-05-04 15:21 47.64756 8.51130 7289 ft 257 kts 316°
2026-05-04 15:22 47.66061 8.49334 7112 ft 256 kts 316°
2026-05-04 15:22 47.67365 8.47538 6944 ft 255 kts 316°
2026-05-04 15:22 47.69950 8.43986 6604 ft 252 kts 316°
2026-05-04 15:23 47.71232 8.42223 6434 ft 249 kts 316°
2026-05-04 15:23 47.72485 8.40494 6262 ft 243 kts 316°
2026-05-04 15:23 47.73693 8.38752 6079 ft 242 kts 307°
2026-05-04 15:23 47.74356 8.36522 5926 ft 233 kts 276°
2026-05-04 15:24 47.73215 8.32407 5607 ft 213 kts 225°
2026-05-04 15:24 47.71236 8.29350 5326 ft 193 kts 226°
2026-05-04 15:25 47.70627 8.28379 5232 ft 196 kts 227°
2026-05-04 15:25 47.69214 8.26732 5018 ft 194 kts 193°
2026-05-04 15:25 47.68342 8.26759 4921 ft 189 kts 163°
2026-05-04 15:26 47.66182 8.28927 4730 ft 189 kts 136°
2026-05-04 15:26 47.65226 8.30259 4627 ft 189 kts 136°
2026-05-04 15:26 47.63326 8.32874 4416 ft 184 kts 137°
2026-05-04 15:27 47.62383 8.34172 4315 ft 185 kts 137°
2026-05-04 15:27 47.60486 8.36780 4110 ft 184 kts 137°
2026-05-04 15:28 47.58653 8.39295 4007 ft 170 kts 138°
2026-05-04 15:28 47.57803 8.40460 3978 ft 157 kts 138°
2026-05-04 15:28 47.56239 8.42612 3574 ft 154 kts 139°
2026-05-04 15:29 47.55466 8.43674 3361 ft 148 kts 139°
2026-05-04 15:30 47.52421 8.47848 2575 ft 150 kts 139°
2026-05-04 15:30 47.50125 8.50986 1964 ft 151 kts 138°
2026-05-04 15:31 47.48600 8.53073 1563 ft 148 kts 138°
2026-05-04 15:31 47.47870 8.54072 1407 ft 146 kts 137°
2026-05-04 15:32 47.46624 8.55668 1404 ft 6 kts 166°
2026-05-04 15:32 47.46503 8.55712 1406 ft 12 kts 166°
2026-05-04 15:33 47.46326 8.55836 1405 ft 16 kts 138°
2026-05-04 15:34 47.46006 8.55978 1400 ft 13 kts 185°
2026-05-04 15:34 47.45936 8.55913 1403 ft 10 kts 262°
2026-05-04 15:34 47.45949 8.55720 1397 ft 10 kts 276°
2026-05-04 15:35 47.46001 8.55619 1404 ft 5 kts 358°
2026-05-04 15:35 47.46035 8.55623 1402 ft 0 kts
2026-05-04 15:35 47.46042 8.55624 1396 ft 0 kts
2026-05-04 15:36 47.46044 8.55625 1396 ft 0 kts